This is the latest recevied weather packets stored in our database for station/object KD8DNS. If no packets are shown the sender has not sent any weather packets the latest 10 day(s).
| Time | Temp. | Humidity | Pressure | Rain* | Wind** | Luminosity | Snow |
|---|---|---|---|---|---|---|---|
| 1788533204 | 32.22° C | 66% | 1019.1 hPa | 0 mm | - | 220 W/m² | - |
| 1788532899 | 32.22° C | 66% | 1019.2 hPa | 0 mm | - | 413 W/m² | - |
| 1788532595 | 32.22° C | 66% | 1019.1 hPa | 0 mm | - | 382 W/m² | - |
| 1788532292 | 31.67° C | 68% | 1019.3 hPa | 0 mm | - | 398 W/m² | - |
| 1788531988 | 31.11° C | 70% | 1019.2 hPa | 0 mm | - | 399 W/m² | - |
| 1788531683 | 31.11° C | 71% | 1019.2 hPa | 0 mm | - | 347 W/m² | - |
| 1788531378 | 31.11° C | 71% | 1019.3 hPa | 0 mm | - | 339 W/m² | - |
| 1788531074 | 31.11° C | 71% | 1019.1 hPa | 0 mm | - | 259 W/m² | - |
| 1788530769 | 30.56° C | 72% | 1019.2 hPa | 0 mm | - | 311 W/m² | - |
| 1788530463 | 30.56° C | 72% | 1019.2 hPa | 0 mm | - | 339 W/m² | - |
| 1788530162 | 30.56° C | 72% | 1019 hPa | 0 mm | - | 355 W/m² | - |
| 1788529859 | 30° C | 74% | 1019.2 hPa | 0 mm | - | 346 W/m² | - |
| 1788529554 | 29.44° C | 76% | 1019.1 hPa | 0 mm | - | 300 W/m² | - |
| 1788529248 | 28.89° C | 78% | 1019.3 hPa | 0 mm | - | 295 W/m² | - |
| 1788528943 | 28.89° C | 79% | 1019.3 hPa | 0 mm | - | 259 W/m² | - |
| 1788528639 | 28.33° C | 80% | 1019.2 hPa | 0 mm | - | 243 W/m² | - |
| 1788528333 | 27.78° C | 80% | 1019.4 hPa | 0 mm | - | 235 W/m² | - |
| 1788528027 | 27.78° C | 81% | 1019.4 hPa | 0 mm | - | 210 W/m² | - |
| 1788527752 | 27.78° C | 82% | 1019.5 hPa | 0 mm | - | 192 W/m² | - |
| 1788527418 | 27.22° C | 83% | 1019.3 hPa | 0 mm | - | 201 W/m² | - |
| 1788527117 | 26.67° C | 85% | 1019.5 hPa | 0 mm | - | 193 W/m² | - |
| 1788526812 | 26.11° C | 86% | 1019.7 hPa | 0 mm | - | 185 W/m² | - |
| 1788526508 | 25.56° C | 87% | 1019.6 hPa | 0 mm | - | 159 W/m² | - |
| 1788526203 | 25° C | 88% | 1019.5 hPa | 0 mm | - | 149 W/m² | - |
| 1788525898 | 25° C | 89% | 1019.6 hPa | 0 mm | - | 142 W/m² | - |
* Rain latest hour (hover to see other rain measurements)
** Current wind speed in m/s (hover to see current wind gust speed)